GSAT0202 (GALILEO 6)

Last updated on Wed Aug 19 2026 00:02:49 GMT+0000 (Coordinated Universal Time)

1 40129U 14050B 26227.42162475 -.00000035 00000+0 00000+0 0 9993 2 40129 48.8293 270.0882 1684040 182.4088 176.6991 1.85520347 81589
UTC large
Height (km)
Speed (km/s)
/
Latitude / Longitude
Inclination (degrees)
Orbital Period (minutes)
Azimuth
Elevation
Range (km)
Doppler Factor

Next 0 passes for location: London (51.5072 / 0.1276)

No passes found over London.
GSAT0202 (GALILEO 6)